STARLINK-3768, 52301

Orbit data source: Space-Track

STARLINK-3768, 52301 is a payload satellite owned by SpaceX/Seattle (US) in LEO that was launched on Thu, 21 Apr 2022 UTC via an FALCON 9 launch vehicle from the Air Force Eastern Test Range (AFETR). Payload-class satellites include a variety of spacecraft equipped with specific instruments for various scientific and technological missions. These include communications satellites like Starlink; space stations such as the ISS; scientific satellites like the Hubble; Earth observation satellites from companies like Planet Labs, Umbra, and HawkEye 360; GPS; miniature CubeSats for education and research; and military/defense satellites.

Loading next visibility...
Identifier
52301, 2022-041AS
Orbit
LEO
Country
Flag of USUS
Related business
Manufacturer
SpaceX/Seattle
Mission
Operational Commercial Communications
Bus & Motor
STARLINK, Unknown motor
Mass
297 kg wet, ~275 kg dry
Launch date (UTC)
2022-04-21 (4 years ago)
Launch vehicle
FALCON 9
Launch site
Air Force Eastern Test Range (AFETR)
Object type
Payload
Rocket body
Debris
Shape & HBR
Box + 1 Pan, 10.1 m
Radar Cross Section
11.087 m², Large (>1 m²)

Expand to show TLE details & history
Last TLE update: 1 day ago

TLE from 1 day ago
0 STARLINK-3768
1 52301U 22041AS  26235.92155452 -.00000077  00000-0  89980-5 0  9995
2 52301  53.1616  60.7704 0001105  79.3392 280.7735 15.33550639239858
Epoch: 2026-08-23T22:07Z
TLE epoch observation values (Epoch: 2026-08-23T22:07:02.310Z)
Latitude
0.00001°
Longitude
116.80011°
Altitude
465.989 km
Speed
7.635 km/s
True Right ascension
04h 03m 04s
True Declination
0° 00' 00"
Sunlit
Object was in daylight at epoch
Visualization orbit readout
Latitude
Unknown
Longitude
Unknown
Altitude
Unknown
Speed
Unknown
Apparent Right ascension
Unknown
Apparent Declination
Unknown
Sunlit
N/A
Visualization observer readout
Local Sidereal Time
19:32:45
Azimuth
Unknown
Elevation
Unknown
Doppler factor
Unknown
Orbital elements
Apogee altitude
466.242 km
Perigee altitude
464.729 km
Semi-major axis
6,843.622 km
Eccentricity
0.00011
Inclination
53.1616°
RAAN
60.7704°
Arg. of periapsis
79.3392°
True anomaly
280.76106°
Mean anomaly
280.7735°
Eccentric anomaly
280.76728°
Mean motion
3.83366 °/min
Orbital period
93.9 mins
BSTAR
0.000008998
Loading maneuver chart data...
Computing Atmospheric mass density...
Loading historical data...
Loading historical data...
Loading historical data...
Loading historical data...
Loading historical data...
Loading historical data...
Loading historical data...

Documentation

Showing up to 5 results
|